Location: Ottawa
(45.4167°N, 75.7000°W)
Time: 13:08:26
(UTC-05:00)

Envisat - Pass Details

Date: 08 October 2017
Orbit: 764 x 766 km, 98.2° (Epoch: 11 December)

Event Time Altitude Azimuth Distance (km) Brightness Sun altitude
Exits shadow 20:41:26 56° 151° (SSE) 913 3.1 -23.8°
Maximum altitude 20:42:33 81° 75° (ENE) 781 2.8 -24.0°
Drops below altitude 10° 20:47:39 10° 348° (NNW) 2,315 5.8 -24.8°
Sets 20:49:58 0° 348° (NNW) 3,246 6.6 -25.2°
